Weather in Kelme

Lithuania     55°37′56″N   22°56′26″E
temp.,
°C
wind,
m/s
gust,
m/s
humid.,
%
clouds,
%
prec.,
mm/h
press.,
hPa
HPBL,
m
27 february, sat
sat2723:00+2w5119212 0.0 1016301
02:00+2wnw5129028 0.0 1018408
05:00+1nw6158822 0.0 1018551
08:00+1nw6148811 0.0 1021535
11:00+3nnw712770 0.0 1023758
14:00+5nnw711640 0.0 10261099
17:00+4nnw511680 0.0 1026823
20:00+1nw411840 0.0 1028341
28 february, sun
sun2823:000nw4109030 0.0 1028294
02:00+1wnw498565 0.0 1028340
05:00+2wnw4118191 0.0 1027345
08:00+2wnw5137995 0.0 1026384
11:00+6nw6126794 0.0 1025825
14:00+5nw6128394 0.1 1025869
17:00+5nw4108397 0.0 1025528
20:00+3nw4119153 0.0 1028349
1 march, mon
mon123:00+1nw37950 0.0 1028184
02:00+1nw38940 0.0 1030213
05:00+1nw49940 0.0 1029226
08:00+1wnw38920 0.0 1030170
11:00+7wnw48710 0.0 1030422
14:00+10w510640 0.0 1029573
17:00+7wsw6136928 0.0 1027610
20:00+3w5119025 0.0 1027463
2 march, tue
tue223:00+2wnw410928 0.0 1028350
02:00+1wnw359310 0.0 1029117
05:00+1wnw33887 0.0 102872
08:00+1wnw368520 0.0 1028126
11:00+6w35690 0.0 1028274
14:00+9w47610 0.0 1028444
17:00+7wnw37730 0.0 1027376
20:00+3wnw37910 0.0 1028180
3 march, wed
wed323:00+2wnw35930 0.0 1029107
02:00+1wnw23920 0.0 102947
05:000w239222 0.0 102848
08:000w239420 0.0 102885
11:00+5wsw23770 0.0 1028253
14:00+6sw34720 0.0 1026431
17:00+3sw46830 0.0 1024425
20:00+3wsw378437 0.0 1023512